Weather History for Winner, SD

Change the Weather History Date:

Tuesday, May 14, 2013

  Actual Average Record
Temperature  
Mean Temperature 73 °F 58 °F  
Max Temperature 89 °F 69 °F 89 °F (2013)
Min Temperature 57 °F 46 °F 37 °F (2011)
Degree Days  
Heating Degree Days 0 8  
Month to date heating degree days 172 142  
Since 1 July heating degree days 6574 6546  
Cooling Degree Days 8 1  
Month to date cooling degree days 21 9  
Year to date cooling degree days 23 11  
Growing Degree Days 26 (Base 50)    
Moisture  
Dew Point 42 °F    
Average Humidity 33    
Maximum Humidity 48    
Minimum Humidity 17    
Precipitation  
Precipitation 0.00 in 0.10 in 0.10 in (2011)
Month to date precipitation 0.26 1.51  
Year to date precipitation 1.72 6.14  
Sea Level Pressure  
Sea Level Pressure 29.70 in    
Wind  
Wind Speed 17 mph (NW)    
Max Wind Speed 31 mph    
Max Gust Speed 39 mph    
Visibility 10 miles    
Events      
T = Trace of Precipitation, MM = Missing Value Source: NWS Daily Summary

Daily Weather History Graph

Daily Weather History Graph

Search for Another Location

Airport:

Trip Planner

Search our weather history database for the weather conditions in past years. The results will help you decide how hot, cold, wet, or windy it might be!

Date:

Astronomy

May. 14, 2013 Rise Set
Actual Time 6:15 AM CDT 8:56 PM CDT
Civil Twilight 5:42 AM CDT 9:29 PM CDT
Nautical Twilight 5:01 AM CDT 10:10 PM CDT
Astronomical Twilight 4:14 AM CDT 10:58 PM CDT
Moon 9:57 AM CDT (5/14) 12:05 AM CDT (5/14)
Length of Visible Light 15h 46m
Length of Day
14h 40m
Waxing Crescent, 19% of the Moon is Illuminated
May 14
Waxing Crescent
May 17
First Quarter
May 24
Full
May 31
Last Quarter
Jun 8
New

Hourly Weather History & Observations

Time (CDT) Temp. Dew Point Humidity Pressure Visibility Wind Dir Wind Speed Gust Speed Precip Events Conditions
12:53 AM 68.0 °F 46.9 °F 47% 29.73 in 10.0 mi South 11.5 mph - N/A   Clear
1:53 AM 66.0 °F 46.0 °F 48% 29.70 in 10.0 mi South 10.4 mph - N/A   Clear
2:53 AM 70.0 °F 44.1 °F 39% 29.67 in 10.0 mi South 11.5 mph - N/A   Clear
3:53 AM 78.1 °F 42.1 °F 28% 29.61 in 10.0 mi South 24.2 mph 31.1 mph N/A   Clear
4:53 AM 75.0 °F 42.1 °F 31% 29.60 in 10.0 mi SSW 19.6 mph - N/A   Clear
5:53 AM 69.1 °F 43.0 °F 39% 29.58 in 10.0 mi SSW 20.7 mph 27.6 mph N/A   Clear
6:53 AM 70.0 °F 43.0 °F 38% 29.57 in 10.0 mi SSW 23.0 mph 31.1 mph N/A   Clear
7:53 AM 73.0 °F 45.0 °F 37% 29.59 in 10.0 mi SW 15.0 mph 23.0 mph N/A   Clear
8:53 AM 78.1 °F 46.0 °F 32% 29.62 in 10.0 mi WSW 13.8 mph - N/A   Clear
9:53 AM 82.0 °F 45.0 °F 27% 29.64 in 10.0 mi WNW 21.9 mph - N/A   Clear
10:53 AM 86.0 °F 46.0 °F 25% 29.69 in 10.0 mi NNW 29.9 mph 38.0 mph N/A   Clear
11:53 AM 86.0 °F 48.0 °F 27% 29.71 in 10.0 mi NNW 28.8 mph 38.0 mph N/A   Clear
12:53 PM 87.1 °F 48.0 °F 26% 29.73 in 10.0 mi NNW 29.9 mph 36.8 mph N/A   Clear
1:53 PM 86.0 °F 44.1 °F 23% 29.75 in 10.0 mi NNW 25.3 mph 32.2 mph N/A   Clear
2:53 PM 86.0 °F 45.0 °F 24% 29.75 in 10.0 mi NW 16.1 mph 27.6 mph N/A   Clear
3:53 PM 87.1 °F 39.9 °F 19% 29.74 in 10.0 mi North 20.7 mph 27.6 mph N/A   Clear
4:53 PM 87.1 °F 37.9 °F 18% 29.74 in 10.0 mi NNW 12.7 mph - N/A   Clear
5:53 PM 84.9 °F 37.9 °F 19% 29.75 in 10.0 mi North 16.1 mph 23.0 mph N/A   Clear
6:53 PM 82.9 °F 39.0 °F 21% 29.75 in 10.0 mi North 16.1 mph - N/A   Clear
7:53 PM 80.1 °F 36.0 °F 20% 29.76 in 10.0 mi North 13.8 mph - N/A   Clear
8:53 PM 70.0 °F 37.0 °F 30% 29.78 in 10.0 mi North 9.2 mph - N/A   Clear
9:53 PM 66.9 °F 37.0 °F 33% 29.78 in 10.0 mi ENE 5.8 mph - N/A   Clear
10:53 PM 68.0 °F 34.0 °F 28% 29.82 in 10.0 mi Calm Calm - N/A   Clear
11:53 PM 60.1 °F 35.1 °F 39% 29.83 in 10.0 mi NE 8.1 mph - N/A   Clear